Погода в Берлевоге

Норвегия     70°51′35″N   29°05′26″E
темп.,
°C
ветер,
м/с
пор.,
м/с
влажн.,
%
обл.,
%
осадки,
мм/ч
давл.,
гПа
погр.,
м
22 января, пт
пт2201:00−10юв4109270 0.8 1016506
04:00−10юв61288100 0.3 1014597
07:00−10юв111783100 0.4 1014778
10:00−10юв131980100 0.0 1014725
13:00−11юв131880100 0.0 1015741
16:00−11юв131880100 0.0 1014704
19:00−11юв121880100 0.0 1014800
22:00−11юв121880100 0.0 1014738
23 января, сб
сб2301:00−11юв12188299 0.0 1014712
04:00−12юв13198569 0.0 1012691
07:00−11юв13208335 0.0 1011746
10:00−11юв14208158 0.0 1010789
13:00−10юв14208080 0.0 1009820
16:00−9юв131978100 0.0 1006892
19:00−9юв131986100 0.1 1005973
22:00−11юв111786100 0.1 1004843
24 января, вс
вс2401:00−12юв91488100 0.1 1003692
04:00−14юв699194 0.0 1002279
07:00−14ююв569087 0.0 1002208
10:00−11ююв489298 0.1 1001395
13:00−11ююв468999 0.3 1001259
16:00−11ю5789100 0.0 1000303
19:00−11ю6993100 0.0 1000225
22:00−10ю689382 0.0 1000200
25 января, пн
пн2501:00−9ю7129487 0.0 1000273
04:00−7ю6119296 0.0 1000331
07:00−7ююз469291 0.1 1001206
10:00−8ююз569289 0.0 1002164
13:00−8ююз569169 0.0 1003127
16:00−8ююз458724 0.0 100488
19:00−9ююз448912 0.0 100569
22:00−9ю44890 0.0 100674
26 января, вт
вт2601:00−8ю44850 0.0 100774
04:00−7ююв348757 0.0 1008103
07:00−3юв489079 0.0 1008394
10:00−2вюв71090100 0.1 1009559
13:00−2вюв81191100 0.1 1010576
16:00−2вюв91390100 0.1 1010630
19:00−2вюв101589100 0.1 1010680
22:00−2вюв121688100 0.1 1009728